EHI
0 0 0 0 0 0 0 0 0 0 0 0 1 1 1 0 0 0 0 1 1 0 0 0 0 0 0 0 0 0 0 1 0 0 0 0 0 0 0 0 0 0 0
0 0 0 0 0 0 0 0 0 0 0 0 0 0 0 0 0 0 0 1 1 0 0 0 0 0 0 0 0 0 0 1 0 0 0 0 0 0 0 0 0 0 0
0 0 0 0 0 0 0 0 0 0 0 0 0 0 0 0 0 0 0 1 1 0 0 0 0 0 0 0 0 0 0 0 0 0 0 0 0 0 0 0 0 0 0
0 0 0 0 0 0 0 0 0 0 0 0 0 0 0 0 0 0 0 0 0 0 0 0 0 0 0 0 0 0 0 0 0 0 0 0 0 0 0 0 0 0 0
0 0 0 0 0 0 0 0 0 0 0 0 0 0 0 0 0 0 0 0 0 0 0 0 0 0 0 0 0 0 0 0 0 0 0 0 0 0 0 0 1 0 0
0 0 1 2 1 0 0 0 0 0 0 0 0 0 0 0 0 0 0 0 0 0 0 0 0 0 0 0 0 0 0 0 0 0 0 0 0 0 0 1 1 0 0
0 0 2 4 3 1 0 0 0 0 0 0 0 0 0 0 0 0 0 0 0 0 0 0 0 0 0 0 0 0 0 0 0 0 0 0 0 0 0 1 0 0 0
0 1 2 5 5 4 2 2 1 0 0 0 1 0 0 0 0 0 0 0 0 0 0 0 1 1 0 0 0 0 0 0 0 0 0 0 0 0 0 0 0 0 0
1 1 3 5 7 7 4 3 2 1 1 0 0 0 0 0 0 0 0 0 0 0 0 1 2 2 1 0 0 0 0 0 0 0 0 0 0 0 0 0 0 0 0
0 1 3 5 7 7 4 3 3 3 2 0 0 0 0 0 0 0 0 0 0 0 0 1 2 2 1 0 0 0 0 0 0 0 0 0 0 0 0 0 0 0 0
0 1 3 5 7 6 3 2 3 3 1 0 0 0 0 0 0 0 0 0 0 0 0 0 1 1 1 0 0 0 0 0 0 0 0 0 0 0 0 0 0 0 0
0 0 2 5 6 5 3 1 1 1 0 0 0 0 0 0 0 0 0 0 0 0 0 0 0 0 0 0 0 0 0 0 0 0 0 0 0 0 0 0 0 0 0
0 0 1 4 5 4 3 1 0 0 0 0 0 0 0 0 0 0 0 0 0 0 0 0 0 0 0 0 0 0 0 0 0 0 0 0 0 0 0 0 0 0 0
0 0 1 2 4 4 3 2 1 0 0 0 0 0 0 0 0 0 0 0 0 0 0 0 0 0 0 0 0 0 0 0 0 0 0 0 0 0 0 0 0 0 0
0 0 0 2 4 4 3 2 1 0 0 0 0 0 0 0 0 0 0 0 0 0 0 0 0 0 0 0 0 0 0 0 0 0 0 0 0 0 0 0 0 0 0
0 0 0 2 4 4 3 2 1 0 0 0 0 0 0 0 0 0 0 0 0 0 0 0 0 0 0 0 0 0 0 0 0 0 0 0 0 0 0 0 0 0 0
1 1 1 1 3 3 2 1 0 0 0 0 0 0 0 0 0 0 0 0 0 0 0 0 0 0 0 0 0 0 0 0 0 0 0 0 0 0 0 0 0 0 0
1 1 2 2 2 2 1 0 0 0 0 0 0 0 0 0 0 0 0 0 0 0 0 0 0 0 0 0 0 0 0 0 0 0 0 0 0 0 0 0 0 0 0
1 2 3 4 3 2 1 0 0 0 0 0 0 0 0 0 0 0 0 0 0 0 0 0 0 0 0 0 0 0 0 0 0 0 0 0 0 0 0 0 0 0 0
1 2 3 4 4 3 1 1 1 1 0 0 0 0 0 0 0 0 0 0 0 0 0 0 0 0 0 0 0 0 0 0 0 0 0 0 0 0 0 0 0 0 0
0 1 2 3 3 3 3 2 2 2 1 0 0 0 0 0 0 0 0 0 0 0 0 0 0 0 0 0 0 0 0 0 0 0 0 0 0 0 0 0 0 0 0
0 0 1 1 1 2 3 3 3 2 1 0 0 0 0 0 0 0 0 0 0 0 0 0 0 0 0 0 0 0 0 0 0 0 0 0 0 0 0 0 0 0 0
0 0 0 0 0 2 3 3 3 3 1 1 1 0 0 0 0 0 0 0 0 0 0 0 0 0 0 0 0 0 0 0 0 0 0 0 0 0 0 0 0 0 0
0 0 0 0 0 2 3 3 3 3 2 2 1 0 0 0 0 0 0 0 0 0 0 0 0 0 0 0 0 0 0 0 0 0 0 0 0 0 0 0 0 0 0
0 0 0 0 0 1 2 2 3 3 2 1 1 0 0 0 0 0 0 0 0 0 0 0 0 0 0 0 0 0 0 0 0 0 0 0 0 0 0 0 0 0 0
0 0 0 0 0 0 1 1 2 2 1 0 0 0 0 0 0 0 0 0 0 0 0 0 0 0 0 0 0 0 0 0 0 0 0 0 0 0 0 0 0 0 0
Wind_Speed
2 2 1 3 4 5 6 7 7 8 8 9 9 9 9 9 9 8 9 9 9 9 9 9 9 9 9 9 9 9 9 8 8 8 8 7 6 6 6 6 5 3 5
1 1 1 3 4 5 6 7 7 7 7 8 9 8 8 8 8 8 8 8 9 9 9 9 9 9 9 9 9 9 9 9 9 8 8 6 6 6 6 6 6 3 5
1 1 1 2 4 5 6 6 7 7 7 7 8 7 7 7 8 8 8 8 8 8 8 8 9 9 9 9 9 9 9 9 9 9 7 4 3 6 6 6 6 5 4
2 1 1 3 4 4 5 5 6 6 6 7 7 7 7 7 7 8 8 8 8 8 8 8 8 9 9 9 9 10 9 9 9 8 4 4 3 5 6 6 5 5 4
1 1 1 3 3 4 4 5 5 5 6 6 6 6 6 7 7 7 7 7 8 8 8 8 8 9 9 9 9 9 9 9 9 7 4 3 3 5 6 6 6 5 5
1 1 1 3 3 3 4 4 4 5 5 5 5 5 6 6 6 6 7 7 7 7 7 8 8 9 9 9 9 9 9 9 7 4 4 3 2 5 6 6 6 5 5
1 1 0 2 3 3 3 4 4 5 5 5 4 4 5 5 6 6 6 6 6 7 7 8 9 9 9 8 8 9 9 9 5 4 3 3 3 5 6 6 6 6 5
2 1 1 1 2 2 3 4 4 4 4 4 4 4 4 5 5 6 6 6 6 6 7 7 8 8 8 8 8 9 8 7 5 4 3 2 4 6 7 7 7 7 7
3 3 2 2 2 2 3 3 3 3 4 4 5 5 5 5 5 5 6 6 6 6 7 7 8 8 8 8 9 8 9 8 4 3 3 2 4 6 7 7 7 8 8
3 3 2 2 2 2 2 3 4 4 5 5 6 6 6 6 6 5 5 5 5 6 7 7 8 8 8 9 9 8 8 6 3 3 2 2 6 6 7 7 8 8 8
2 2 2 2 2 2 2 3 4 4 6 6 5 6 6 4 4 3 4 6 6 6 7 7 8 8 8 8 9 9 7 3 3 2 2 4 6 6 7 7 7 7 8
0 1 1 1 2 2 2 3 2 3 4 4 4 4 3 3 3 4 6 7 7 7 7 8 8 8 6 4 6 7 3 4 3 2 3 6 6 6 6 7 7 7 8
1 0 1 1 1 2 1 2 2 2 2 3 3 3 3 3 3 3 3 4 4 6 4 5 5 4 4 3 3 3 3 3 2 2 4 7 7 7 6 7 7 7 8
1 0 1 1 1 1 1 2 2 1 1 2 2 3 3 2 3 2 2 2 3 2 3 3 3 4 4 4 4 4 4 3 3 2 4 8 7 7 7 7 7 8 8
1 1 0 1 1 1 2 1 2 1 1 1 2 2 3 2 2 2 2 2 2 2 2 3 3 4 4 4 4 4 4 4 4 3 3 8 8 8 7 7 7 8 8
2 2 1 1 1 2 1 1 1 1 1 1 1 2 2 2 2 2 2 2 2 2 2 2 3 3 3 3 5 4 4 4 4 4 4 5 9 9 8 8 7 8 8
3 2 2 2 2 2 2 1 1 1 1 1 1 2 2 2 2 2 2 2 2 2 3 3 4 3 3 4 4 4 4 4 4 4 4 4 4 8 9 8 8 7 8
2 2 2 2 2 2 2 1 1 1 2 1 1 1 2 2 2 2 2 2 2 2 2 3 3 3 3 3 3 3 3 3 4 4 4 4 4 4 7 10 8 7 7
2 2 2 2 2 2 2 2 2 2 2 1 1 1 1 2 2 2 2 2 2 2 2 2 3 2 3 2 2 3 3 3 3 3 4 4 4 4 4 7 9 8 7
1 1 2 2 2 2 2 2 2 2 2 1 1 1 2 2 3 3 2 2 2 3 2 3 3 3 2 2 3 4 4 3 3 3 3 3 4 4 4 5 4 5 8
2 1 1 2 1 2 1 1 1 1 1 1 1 1 2 2 2 2 2 2 2 2 2 3 2 3 2 1 3 3 3 4 4 3 3 3 4 4 4 4 4 4 4
1 1 1 1 1 2 2 2 1 1 0 0 1 1 1 2 2 2 3 2 2 2 3 2 2 2 1 1 2 2 2 3 3 4 3 3 4 3 4 4 4 4 4
1 2 2 2 2 1 2 2 2 2 2 2 1 1 1 1 1 2 2 2 2 2 2 2 2 2 1 1 1 2 2 1 1 2 3 3 3 3 3 3 4 4 4
2 1 2 2 2 1 2 3 3 2 1 1 1 0 0 1 1 1 2 2 2 2 2 2 2 1 2 1 1 1 1 2 2 1 2 2 2 3 3 3 3 3 3
0 1 1 2 1 2 2 2 2 1 1 0 0 0 0 1 0 1 1 1 2 2 2 2 2 2 2 2 1 1 2 2 2 2 0 2 2 2 2 2 2 2 3
2 2 2 2 1 1 2 2 2 2 1 1 0 0 0 0 0 0 1 1 1 1 2 2 2 2 2 2 2 2 2 2 2 2 2 0 1 1 2 2 2 1 2
Wind_Direction
273 262 239 93 89 85 82 82 81 81 81 81 80 78 77 78 76 77 79 77 77 76 75 77 78 78 79 82 84 86 88 90 92 92 91 92 92 92 93 93 93 89 102
218 211 159 103 92 90 89 87 84 82 81 81 83 79 76 76 76 77 81 79 78 78 77 76 77 78 80 82 85 85 83 83 83 82 79 76 83 89 93 93 92 92 96
150 166 156 121 99 91 90 89 84 81 82 85 87 82 77 77 76 75 77 77 78 78 77 75 76 77 80 82 83 82 81 82 80 75 66 47 60 83 86 90 91 88 90
148 147 163 138 113 98 91 90 87 84 84 87 88 81 79 79 75 75 75 76 76 76 75 74 75 80 82 83 84 82 81 78 75 71 58 41 42 78 83 84 83 81 81
136 144 180 149 125 106 97 95 92 86 85 86 84 80 77 79 74 74 76 77 76 74 73 74 78 80 81 83 82 81 80 76 70 60 51 39 33 72 80 82 81 79 77
136 130 183 148 129 116 104 97 91 81 81 81 81 79 78 79 78 75 76 77 79 80 76 76 80 80 80 82 80 78 77 72 63 53 45 35 35 73 82 83 80 76 74
136 111 141 142 130 123 113 102 91 83 80 77 75 74 73 74 74 71 76 77 77 78 75 77 80 78 76 78 79 79 77 71 63 51 42 34 50 73 78 82 78 74 73
109 89 55 128 118 111 109 99 85 79 76 73 71 72 71 69 69 69 77 78 77 75 76 77 79 79 77 77 78 79 76 70 62 53 42 34 65 74 74 77 78 75 73
75 70 43 23 41 57 74 90 85 79 74 69 67 66 69 69 72 75 73 76 77 76 78 78 78 79 76 75 75 78 75 68 56 43 47 40 68 79 76 76 79 76 72
55 51 37 28 32 33 38 63 76 74 68 62 58 57 61 58 60 67 67 70 74 78 76 75 76 77 74 71 71 74 73 63 47 39 27 56 73 79 77 75 77 76 75
43 33 32 31 30 33 44 53 55 57 55 53 48 48 53 41 38 43 56 64 69 73 74 72 73 75 71 66 67 69 64 47 45 35 24 63 73 77 80 82 81 77 74
52 3 34 38 37 46 57 55 40 41 41 44 42 40 43 44 40 47 44 52 58 61 61 63 64 64 63 56 59 62 51 45 41 26 36 60 71 76 81 85 84 79 77
189 57 64 91 74 74 64 62 43 36 38 38 43 48 49 45 39 38 38 33 37 47 46 50 52 50 54 59 60 56 52 49 33 21 30 51 62 73 78 82 83 81 80
107 355 56 105 96 83 76 68 60 48 43 38 40 55 59 52 45 38 40 35 37 43 54 50 54 57 58 59 66 63 55 51 36 22 28 45 56 64 70 77 81 82 83
146 215 186 136 129 108 88 70 70 56 59 51 52 60 74 73 61 52 44 42 39 42 57 62 60 62 60 59 62 65 60 51 41 34 23 38 48 55 61 71 76 79 80
189 207 192 147 145 124 110 99 81 68 69 67 60 69 84 86 79 70 57 51 42 44 57 71 73 69 60 59 56 53 54 50 42 39 34 31 41 48 54 61 68 72 77
195 194 187 160 138 140 137 128 100 76 80 75 67 77 87 93 94 90 76 63 52 58 66 71 67 69 68 62 54 49 50 46 42 38 36 32 29 38 44 52 58 65 72
179 177 189 151 139 150 138 124 102 83 83 73 64 69 84 94 98 93 87 75 69 74 74 76 67 70 64 59 53 41 41 39 39 42 42 38 33 29 31 40 44 55 68
176 167 160 134 140 147 135 113 97 84 76 72 68 69 86 97 97 98 91 78 82 80 75 83 68 78 78 68 64 51 41 40 33 44 43 38 37 35 31 31 37 43 58
127 129 138 119 118 125 109 82 67 60 50 55 65 83 105 102 101 98 89 80 88 90 77 74 79 66 77 78 75 59 44 41 40 39 40 40 36 38 37 33 27 28 43
74 91 126 121 127 132 120 112 97 78 32 38 45 72 106 111 109 108 102 93 98 105 109 105 94 83 63 57 73 52 36 40 45 39 39 45 38 36 42 39 34 29 29
136 143 137 145 144 161 159 144 137 134 111 80 36 49 79 106 122 127 125 121 115 112 105 102 107 109 72 48 94 87 33 13 18 29 35 43 36 33 39 39 39 37 34
188 193 177 172 152 147 124 100 74 56 38 32 31 29 29 106 121 125 142 133 125 125 138 146 140 127 135 52 69 126 131 184 343 2 28 39 34 35 28 28 37 33 36
233 202 155 155 139 128 123 128 132 141 165 226 220 231 2 101 124 136 148 149 149 145 150 172 146 135 133 141 58 52 111 147 140 12 358 17 27 35 23 21 29 33 37
61 85 126 123 121 117 121 135 136 137 182 168 75 77 34 14 72 137 160 162 163 162 165 168 148 146 142 148 147 125 87 68 98 135 157 347 6 10 15 17 30 30 32
46 64 83 100 88 96 114 121 135 143 136 126 144 196 262 337 328 87 177 176 176 171 179 183 170 159 155 141 139 142 149 150 163 145 153 193 337 331 355 19 30 27 33